EW5758 Weather Reports


time (UTC)temp
F
wind
direction
speed
knots
gust
knots
rain 1hr
in
rain 24hr
in
rain mn
in
humidity
%
barometer
mb
20260506221538 47 149 5.2 0.0 0.00 0.00 0.00 88 1012.1
20260506221507 46 117 5.2 0.0 0.00 0.00 0.00 88 1012.1
20260506221040 47 126 6.1 0.0 0.00 0.00 0.00 88 1012.2
20260506220523 47 110 6.1 0.0 0.00 0.00 0.00 88 1012.2
20260506220110 46 132 6.1 0.0 0.00 0.00 0.00 87 1012.2
20260506220030 47 112 6.1 0.0 0.00 0.00 0.31 87 1012.2
20260506215520 47 125 6.1 0.0 0.00 0.00 0.31 87 1012.1
20260506215022 47 124 5.2 0.0 0.00 0.00 0.31 88 1012.0
20260506214618 47 127 5.2 0.0 0.00 0.00 0.31 88 1012.0
20260506214514 47 111 5.2 0.0 0.00 0.00 0.31 88 1012.0
20260506213518 47 96 4.3 0.0 0.00 0.00 0.31 87 1012.0
20260506213046 46 123 4.3 0.0 0.00 0.00 0.31 87 1012.1
20260506213025 47 114 4.3 0.0 0.00 0.00 0.31 87 1012.0
20260506212620 47 112 4.3 0.0 0.00 0.00 0.31 87 1012.0
20260506145031 53 143 7.0 0.0 0.00 0.00 0.31 78 1009.6
20260506144559 52 153 7.8 0.0 0.00 0.00 0.31 81 1009.7
20260506144530 53 171 7.8 0.0 0.00 0.00 0.31 80 1009.7
20260506144021 53 155 8.7 0.0 0.00 0.00 0.31 81 1009.7
20260506143547 53 133 8.7 0.0 0.00 0.00 0.31 80 1009.6
20260506143101 52 186 8.7 0.0 0.00 0.00 0.31 82 1009.7
20260506143033 52 165 8.7 0.0 0.00 0.00 0.31 82 1009.6
20260506142610 51 116 8.7 0.0 0.00 0.00 0.31 83 1009.7
20260506142044 51 139 7.8 0.0 0.00 0.00 0.31 84 1009.7
20260506141647 51 134 7.8 0.0 0.00 0.00 0.31 84 1009.7
20260506141523 51 105 7.8 0.0 0.00 0.00 0.31 85 1009.7
20260506141017 51 167 7.8 0.0 0.00 0.00 0.31 84 1009.7
20260506140515 51 146 7.0 0.0 0.00 0.00 0.31 86 1009.7
20260506140034 50 134 6.1 0.0 0.00 0.00 0.31 85 1009.8
20260506135528 50 167 6.1 0.0 0.00 0.00 0.31 85 1009.8
20260506135032 50 149 7.0 0.0 0.00 0.00 0.31 86 1009.8
20260506134621 49 120 7.0 0.0 0.00 0.00 0.31 86 1009.8
20260506134526 50 152 7.0 0.0 0.00 0.00 0.31 86 1009.9
20260506134030 50 143 6.1 0.0 0.00 0.00 0.31 86 1009.9
20260506133542 50 170 7.0 0.0 0.00 0.00 0.31 85 1009.8
20260506133051 50 140 6.1 0.0 0.00 0.00 0.31 86 1009.8
20260506133021 50 144 6.1 0.0 0.00 0.00 0.31 86 1009.8
20260506132614 50 134 7.0 0.0 0.00 0.00 0.31 86 1009.8
20260506132019 50 125 7.0 0.0 0.00 0.00 0.31 87 1009.8
20260506131537 49 144 7.8 0.0 0.00 0.00 0.31 87 1009.6
20260506131520 50 130 7.8 0.0 0.00 0.00 0.31 87 1009.6
20260506131050 50 132 8.7 0.0 0.00 0.00 0.31 87 1009.6
20260506130522 50 163 8.7 0.0 0.00 0.00 0.31 87 1009.6
20260506130108 49 145 7.8 0.0 0.00 0.00 0.31 87 1009.6
20260506130021 50 157 7.8 0.0 0.00 0.00 0.31 87 1009.6
20260506125516 50 161 7.8 0.0 0.00 0.00 0.31 88 1009.6
20260506125039 50 136 7.8 0.0 0.00 0.00 0.31 88 1009.6
20260506124610 49 131 7.8 0.0 0.00 0.00 0.31 88 1009.6
20260506124526 50 152 7.8 0.0 0.00 0.00 0.31 88 1009.5
20260506124032 50 147 7.0 0.0 0.00 0.00 0.31 88 1009.5
20260506123536 50 136 7.8 0.0 0.00 0.00 0.31 88 1009.4
20260506123114 49 132 7.8 0.0 0.00 0.00 0.31 89 1009.3
20260506123036 50 120 7.8 0.0 0.00 0.00 0.31 89 1009.4
20260506122534 50 149 7.8 0.0 0.00 0.00 0.31 88 1009.4
20260506122041 50 158 7.8 0.0 0.00 0.00 0.31 87 1009.2
20260506121545 50 122 7.8 0.0 0.00 0.00 0.31 87 1009.2
20260506121513 49 143 7.8 0.0 0.00 0.00 0.31 87 1009.2
20260506121036 50 156 8.7 0.0 0.00 0.00 0.31 87 1009.1
20260506120543 50 155 8.7 0.0 0.00 0.00 0.31 86 1009.0
20260506120030 50 161 7.8 0.0 0.00 0.00 0.31 87 1009.0
20260506120012 50 138 7.8 0.0 0.00 0.00 0.31 87 1009.0
20260506115550 50 163 7.0 0.0 0.00 0.00 0.31 86 1009.0
20260506115028 50 126 6.1 0.0 0.00 0.00 0.31 87 1009.0
20260506114557 50 197 6.1 0.0 0.00 0.00 0.31 87 1008.9
20260506114518 50 126 6.1 0.0 0.00 0.00 0.31 87 1009.0
20260506114033 50 154 6.1 0.0 0.00 0.00 0.31 89 1008.9
20260506113538 50 150 7.0 0.0 0.00 0.00 0.31 89 1008.9
20260506113022 50 122 7.0 0.0 0.00 0.00 0.31 90 1009.1
20260506113003 49 132 7.0 0.0 0.00 0.00 0.31 90 1009.0
20260506112524 49 97 7.0 0.0 0.00 0.00 0.31 90 1008.9
20260506112028 49 164 7.0 0.0 0.00 0.00 0.31 91 1008.9
20260506111558 48 152 7.0 0.0 0.00 0.00 0.31 91 1008.9
20260506111522 49 135 7.0 0.0 0.00 0.00 0.31 91 1008.9
20260506111028 49 171 7.8 0.0 0.00 0.00 0.31 91 1009.0
20260506110531 48 174 7.8 0.0 0.00 0.00 0.31 91 1009.0
20260506110105 48 142 7.0 0.0 0.00 0.00 0.31 92 1009.0
20260506110016 48 200 7.8 0.0 0.00 0.00 0.31 92 1009.0
20260506105524 48 135 7.8 0.0 0.00 0.00 0.31 92 1009.1
20260506105037 48 134 8.7 0.0 0.00 0.00 0.31 92 1009.1
20260506104612 48 127 9.6 0.0 0.00 0.00 0.31 92 1009.1
20260506104525 48 149 8.7 0.0 0.00 0.00 0.31 93 1009.1
20260506104040 48 163 8.7 0.0 0.00 0.00 0.31 93 1009.1
20260506103523 48 161 7.8 0.0 0.00 0.00 0.31 93 1009.1
20260506103118 48 130 7.0 0.0 0.00 0.00 0.30 93 1009.0
20260506103052 48 131 7.0 0.0 0.00 0.00 0.30 93 1009.1
20260506102519 48 178 7.0 0.0 0.00 0.00 0.30 93 1009.0
20260506102024 48 141 8.7 0.0 0.00 0.00 0.30 93 1009.0
20260506101637 47 142 8.7 0.0 0.00 0.00 0.28 93 1008.9
20260506101526 48 130 7.8 0.0 0.00 0.00 0.29 93 1008.9
20260506101038 48 138 7.0 0.0 0.00 0.00 0.29 93 1008.8
20260506100528 48 149 7.0 0.0 0.00 0.00 0.28 93 1008.8
20260506100032 48 147 7.0 0.0 0.00 0.00 0.28 93 1008.7
20260506100010 47 130 7.0 0.0 0.00 0.00 0.28 93 1008.7
20260506095553 48 129 7.8 0.0 0.00 0.00 0.27 93 1008.7
20260506095023 48 120 6.1 0.0 0.00 0.00 0.25 93 1008.6
20260506094528 48 138 5.2 0.0 0.00 0.00 0.24 93 1008.5
20260506094514 48 126 5.2 0.0 0.00 0.00 0.24 93 1008.5
20260506094050 48 133 5.2 0.0 0.00 0.00 0.22 93 1008.5
20260506093529 48 138 6.1 0.0 0.00 0.00 0.20 93 1008.4
20260506093102 48 123 7.0 0.0 0.00 0.00 0.18 93 1008.3
20260506093027 48 127 7.8 0.0 0.00 0.00 0.17 93 1008.3
20260506092529 48 130 8.7 0.0 0.00 0.00 0.16 92 1008.2
20260506092033 48 133 7.8 0.0 0.00 0.00 0.14 92 1008.1
20260506091608 48 139 7.0 0.0 0.00 0.00 0.12 92 1008.1
20260506091518 49 131 7.0 0.0 0.00 0.00 0.12 92 1008.1
20260506091017 49 145 5.2 0.0 0.00 0.00 0.10 92 1008.0
20260506090513 49 141 5.2 0.0 0.00 0.00 0.08 92 1008.0
20260506090112 49 125 5.2 0.0 0.00 0.00 0.07 92 1007.8
20260506090033 49 134 5.2 0.0 0.00 0.00 0.07 92 1007.8
20260506085531 49 120 4.3 0.0 0.00 0.00 0.06 92 1007.7
20260506085029 49 111 4.3 0.0 0.00 0.00 0.05 92 1007.6
20260506084606 49 119 4.3 0.0 0.00 0.00 0.04 92 1007.5
20260506084525 49 122 4.3 0.0 0.00 0.00 0.04 92 1007.5
20260506084031 49 112 4.3 0.0 0.00 0.00 0.03 92 1007.3
20260506083542 49 114 4.3 0.0 0.00 0.00 0.02 91 1007.2
20260506083054 49 105 4.3 0.0 0.00 0.00 0.02 91 1007.1
20260506083021 49 116 4.3 0.0 0.00 0.00 0.02 91 1007.2
20260506082527 49 97 4.3 0.0 0.00 0.00 0.02 91 1007.1
20260506082030 49 113 4.3 0.0 0.00 0.00 0.02 91 1007.0
20260506081537 49 114 4.3 0.0 0.00 0.00 0.01 91 1007.0
20260506081525 49 126 4.3 0.0 0.00 0.00 0.01 91 1006.9
20260506081037 49 119 4.3 0.0 0.00 0.00 0.01 91 1006.9
20260506080525 49 149 3.5 0.0 0.00 0.00 0.01 91 1006.8
20260506073518 49 126 2.6 0.0 0.00 0.00 0.00 91 1006.7
20260506073051 49 147 1.7 0.0 0.00 0.00 0.00 92 1006.6
20260506073023 49 130 1.7 0.0 0.00 0.00 0.00 92 1006.7
20260506072514 49 141 1.7 0.0 0.00 0.00 0.00 92 1006.6
20260506072037 49 145 1.7 0.0 0.00 0.00 0.00 91 1006.6
20260506071551 49 139 1.7 0.0 0.00 0.00 0.00 92 1006.5
20260506071527 49 148 1.7 0.0 0.00 0.00 0.00 92 1006.5
20260506071018 49 172 1.7 0.0 0.00 0.00 0.00 92 1006.5
20260506070554 49 178 0.9 0.0 0.00 0.00 0.00 93 1006.4
20260506062514 48 57 0.0 0.0 0.00 0.00 0.00 94 1006.6
20260506062022 48 57 0.0 0.0 0.00 0.00 0.00 94 1006.6
20260506061557 47 57 0.9 0.0 0.00 0.00 0.00 94 1006.6
20260506061520 48 57 0.9 0.0 0.00 0.00 0.00 94 1006.7
20260506061042 48 57 1.7 0.0 0.00 0.00 0.00 93 1006.7
20260506060539 47 57 1.7 0.0 0.00 0.00 0.00 94 1006.7